Vorticity
6 7 5 7 5 6 6 7 5 6 6 3 4 5 14 12 8 7 12 18 22 29
6 5 5 8 9 3 2 13 16 10 10 3 4 -5 3 17 29 27 22 27 37 27
7 7 9 8 5 3 8 5 17 10 10 7 -2 28 50 38 36 41 32 28 27 42
7 8 6 3 17 16 1 -3 20 24 25 36 53 42 38 16 7 -3 -1 4 5 10
12 3 9 10 11 12 -7 -11 25 22 40 43 32 27 15 10 13 7 19 18 16 15
9 14 10 6 5 15 22 4 52 44 38 29 18 15 8 11 19 17 10 5 8 19
1 11 7 3 6 16 25 57 39 23 21 11 5 5 8 11 11 15 18 19 16 15
13 8 7 -11 22 42 39 29 17 13 11 8 8 8 11 14 14 14 14 13 11 6
7 4 -3 26 50 31 16 8 9 14 17 17 15 14 13 14 14 12 11 8 5 7
10 21 39 45 21 9 8 14 14 11 10 9 9 8 7 6 7 7 7 9 9 10
24 29 23 22 8 14 14 7 7 9 9 9 9 10 10 10 11 11 11 12 13 15
39 26 14 11 14 7 8 8 7 10 13 17 18 18 17 15 14 13 12 13 13 13
32 14 12 10 9 7 9 13 19 22 22 23 22 24 25 28 30 25 22 22 19 16
11 12 9 7 9 12 18 19 20 24 24 21 20 19 20 20 23 28 32 26 21 19
Height
5662 5654 5647 5637 5628 5619 5611 5605 5598 5590 5581 5573 5564 5557 5552 5545 5540 5534 5528 5524 5520 5519
5646 5637 5628 5619 5609 5600 5592 5584 5575 5566 5556 5547 5540 5529 5523 5516 5510 5504 5499 5495 5493 5492
5629 5620 5611 5602 5592 5581 5572 5561 5550 5541 5531 5521 5512 5504 5493 5485 5479 5474 5472 5470 5469 5470
5614 5604 5593 5582 5572 5559 5548 5537 5526 5514 5502 5489 5480 5473 5468 5464 5461 5459 5456 5454 5454 5452
5596 5584 5572 5561 5550 5539 5527 5513 5500 5487 5476 5467 5461 5457 5452 5449 5446 5444 5442 5439 5437 5436
5577 5564 5553 5541 5529 5517 5505 5490 5476 5465 5457 5452 5448 5444 5440 5436 5432 5429 5427 5424 5422 5421
5558 5545 5534 5521 5508 5494 5480 5467 5456 5450 5444 5440 5435 5431 5427 5423 5419 5415 5412 5409 5407 5405
5537 5525 5512 5500 5485 5471 5459 5450 5443 5437 5431 5426 5421 5417 5412 5408 5405 5401 5398 5395 5393 5392
5517 5505 5493 5477 5464 5453 5445 5437 5430 5423 5418 5412 5406 5402 5397 5393 5390 5387 5385 5383 5380 5378
5499 5484 5471 5458 5447 5439 5431 5424 5417 5410 5403 5397 5391 5387 5382 5378 5376 5373 5370 5368 5366 5365
5479 5466 5454 5443 5435 5426 5417 5409 5402 5394 5387 5380 5374 5369 5364 5361 5358 5356 5353 5351 5350 5349
5462 5451 5441 5431 5422 5413 5404 5394 5386 5377 5369 5362 5355 5349 5344 5341 5339 5337 5335 5334 5334 5334
5447 5437 5427 5418 5409 5399 5389 5379 5369 5359 5350 5342 5336 5330 5325 5322 5320 5319 5318 5318 5319 5320
5433 5424 5415 5405 5395 5385 5375 5364 5354 5345 5335 5326 5319 5315 5311 5307 5305 5303 5302 5303 5305 5309